THOR ABLESTAR DEB, 1099

Orbit data source: Space-Track

THOR ABLESTAR DEB, 1099 is space debris in LEO originally from a launch on Sun, 13 Dec 1964 UTC launched from the Air Force Western Test Range (AFWTR). Debris objects in space refer to the collection of defunct objects orbiting the Earth. Examples of debris include non-operational satellites, rocket bodies, and fragments generated from explosions, collisions, or faulty payload assembly.

Loading next visibility...
Identifier
1099, 1964-083G
Orbit
LEO
Last TLE update
7 hours ago
Origin
Manufacturer
Unknown
Mission
Spacecraft
Bus & Motor
Unknown
Mass
Unknown
Launch date (UTC)
1964-12-13 (61 years ago)
Launch vehicle
Unknown
Launch site
Air Force Western Test Range (AFWTR)
Object type
Payload
Rocket body
Debris
Shape & HBR
Unknown
Radar Cross Section
0.550 m², Medium (>0.1 m² and < 1m²)

Expand to show TLE details & history

TLE from 7 hours ago
0 THOR ABLESTAR DEB
1 01099U 64083G   25182.91094184  .00000156  00000-0  18705-3 0  9990
2 01099  89.8297 144.4880 0037337 236.5982 177.6113 13.62697374934708
Epoch: 2025-07-01T21:51Z
TLE epoch observation values (Epoch: 2025-07-01T21:51:45.374Z)
Latitude
54.32108°
Longitude
-103.4147°
Altitude
1,062.562 km
Speed
7.312 km/s
True Right ascension
09h 38m 53s
True Declination
54° 09' 53"
Sunlit
Object was in daylight at epoch
Visualization orbit readout
Latitude
80.41144°
Longitude
75.34105°
Altitude
1,059.269 km
Speed
7.319 km/s
Apparent Right ascension
03h 51m 03s
Apparent Declination
34° 53' 43"
Sunlit
Object is in daylight
Visualization observer readout
Local Sidereal Time
16:49:38
Azimuth
12.343° NNE
Elevation
-13.978°
Doppler factor
1
Orbital elements
Apogee altitude
1,050.57 km
Perigee altitude
995.303 km
Semi-major axis
7,401.074 km
Eccentricity
0.00373
Inclination
89.8297°
RAAN
144.488°
Arg. of periapsis
236.5982°
True anomaly
Unknown
Mean anomaly
177.6113°
Eccentric anomaly
Unknown
Mean motion
3.4088 °/min
Orbital period
105.61 mins
BSTAR
0.00018705
Loading maneuver chart data...
Loading SW <> Apogee altitude chart data...

THOR ABLESTAR DEB Visibility forecast

Observer location: undefined°, undefined°

Span
Click to sort rows by Start time (UTC) header in descending order
Start Az.
Max El. time (UTC)
Max El. Az.
Max El.
End time (UTC)
End Az.
10 mins2025-07-02 08:46:07.688Z25.208° NE2025-07-02 08:51:07.688Z78.525° E25.72°2025-07-02 08:56:07.688Z137.063° SSE
10 mins2025-07-02 10:32:07.688Z343.821° N2025-07-02 10:37:07.688Z276.541° WNW34.075°2025-07-02 10:42:07.688Z214.356° SW
8 mins2025-07-02 20:39:07.688Z117.46° SE2025-07-02 20:43:07.688Z69.568° E23.282°2025-07-02 20:47:07.688Z27.352° NE
11 mins2025-07-02 22:23:07.688Z203.361° SW2025-07-02 22:28:07.688Z281.326° WNW37.397°2025-07-02 22:34:07.688Z347.337° N
|